Time,TemperatureF,DewpointF,PressureIn,WindDirection,WindDirectionDegrees,WindSpeedMPH,WindSpeedGustMPH,Humidity,HourlyPrecipIn,Conditions,Clouds,dailyrainin,SolarRadiationWatts/m^2,SoftwareType,DateUTC
2013-05-11 00:01:00,64.0,46.0,-100.00,West,267,5.0,9.0,52,0.00,,,0.00,0.000000,,2013-05-11 07:01:00,
2013-05-11 00:11:00,64.0,46.0,-100.00,West,267,5.0,9.0,52,0.00,,,0.00,0.000000,,2013-05-11 07:11:00,
2013-05-11 00:32:00,63.0,45.0,-100.00,South,191,4.0,8.0,52,0.00,,,-99.99,0.000000,,2013-05-11 07:32:00,
2013-05-11 00:42:00,63.0,45.0,-100.00,South,191,4.0,8.0,52,0.00,,,-99.99,0.000000,,2013-05-11 07:42:00,
2013-05-11 00:52:00,63.0,45.0,-100.00,South,191,4.0,8.0,52,0.00,,,-99.99,0.000000,,2013-05-11 07:52:00,
2013-05-11 01:01:00,63.0,45.0,-100.00,South,191,4.0,8.0,52,0.00,,,-99.99,0.000000,,2013-05-11 08:01:00,
2013-05-11 01:12:00,63.0,45.0,-100.00,South,191,4.0,8.0,52,0.00,,,-99.99,0.000000,,2013-05-11 08:12:00,
2013-05-11 01:42:00,60.0,45.0,-100.00,SSE,157,5.0,6.0,57,0.00,,,0.00,0.000000,,2013-05-11 08:42:00,
2013-05-11 01:52:00,60.0,45.0,-100.00,SSE,157,5.0,6.0,57,0.00,,,0.00,0.000000,,2013-05-11 08:52:00,
2013-05-11 02:01:00,60.0,45.0,-100.00,SSE,157,5.0,6.0,57,0.00,,,0.00,0.000000,,2013-05-11 09:01:00,
2013-05-11 02:11:00,60.0,45.0,-100.00,SSE,157,5.0,6.0,57,0.00,,,0.00,0.000000,,2013-05-11 09:11:00,
2013-05-11 02:33:00,59.0,43.0,-100.00,SE,137,5.0,7.0,55,0.00,,,0.00,0.000000,,2013-05-11 09:33:00,
2013-05-11 02:42:00,59.0,43.0,-100.00,SE,137,5.0,7.0,55,0.00,,,0.00,0.000000,,2013-05-11 09:42:00,
2013-05-11 02:52:00,59.0,43.0,-100.00,SE,137,5.0,7.0,55,0.00,,,0.00,0.000000,,2013-05-11 09:52:00,
2013-05-11 03:03:00,59.0,43.0,-100.00,SE,137,5.0,7.0,55,0.00,,,0.00,0.000000,,2013-05-11 10:03:00,
2013-05-11 03:12:00,59.0,43.0,-100.00,SE,137,5.0,7.0,55,0.00,,,0.00,0.000000,,2013-05-11 10:12:00,
2013-05-11 03:33:00,60.0,44.0,-100.00,South,171,4.0,8.0,56,0.00,,,0.00,0.000000,,2013-05-11 10:33:00,
2013-05-11 03:42:00,60.0,44.0,-100.00,South,171,4.0,8.0,56,0.00,,,0.00,0.000000,,2013-05-11 10:42:00,
2013-05-11 03:52:00,60.0,44.0,-100.00,South,171,4.0,8.0,56,0.00,,,0.00,0.000000,,2013-05-11 10:52:00,
2013-05-11 04:02:00,60.0,44.0,-100.00,South,171,4.0,8.0,56,0.00,,,0.00,0.000000,,2013-05-11 11:02:00,
2013-05-11 04:11:00,60.0,44.0,-100.00,South,171,4.0,8.0,56,0.00,,,0.00,0.000000,,2013-05-11 11:11:00,
2013-05-11 04:32:00,60.0,42.0,-100.00,South,170,4.0,6.0,51,0.00,,,-99.99,0.000000,,2013-05-11 11:32:00,
2013-05-11 04:42:00,60.0,42.0,-100.00,South,170,4.0,6.0,51,0.00,,,-99.99,0.000000,,2013-05-11 11:42:00,
2013-05-11 04:52:00,60.0,42.0,-100.00,South,170,4.0,6.0,51,0.00,,,-99.99,0.000000,,2013-05-11 11:52:00,
2013-05-11 05:01:00,60.0,42.0,-100.00,South,170,4.0,6.0,51,0.00,,,-99.99,0.000000,,2013-05-11 12:01:00,
2013-05-11 05:11:00,60.0,42.0,-100.00,South,170,4.0,6.0,51,0.00,,,-99.99,0.000000,,2013-05-11 12:11:00,
2013-05-11 05:32:00,57.0,42.0,-100.00,SE,130,6.0,8.0,57,0.00,,,-99.99,0.000000,,2013-05-11 12:32:00,
2013-05-11 05:42:00,57.0,42.0,-100.00,SE,130,6.0,8.0,57,0.00,,,-99.99,0.000000,,2013-05-11 12:42:00,
2013-05-11 05:52:00,57.0,42.0,-100.00,SE,130,6.0,8.0,57,0.00,,,-99.99,0.000000,,2013-05-11 12:52:00,
2013-05-11 06:01:00,57.0,42.0,-100.00,SE,130,6.0,8.0,57,0.00,,,-99.99,0.000000,,2013-05-11 13:01:00,
2013-05-11 06:11:00,57.0,42.0,-100.00,SE,130,6.0,8.0,57,0.00,,,-99.99,0.000000,,2013-05-11 13:11:00,
2013-05-11 06:42:00,58.0,42.0,-100.00,SE,134,6.0,7.0,55,0.00,,,0.00,7.000000,,2013-05-11 13:42:00,
2013-05-11 06:52:00,58.0,42.0,-100.00,SE,134,6.0,7.0,55,0.00,,,0.00,7.000000,,2013-05-11 13:52:00,
2013-05-11 07:02:00,58.0,42.0,-100.00,SE,134,6.0,7.0,55,0.00,,,0.00,7.000000,,2013-05-11 14:02:00,
2013-05-11 07:11:00,58.0,42.0,-100.00,SE,134,6.0,7.0,55,0.00,,,0.00,7.000000,,2013-05-11 14:11:00,
2013-05-11 07:32:00,62.0,42.0,-100.00,SSE,155,4.0,6.0,48,0.00,,,-99.99,88.000000,,2013-05-11 14:32:00,
2013-05-11 07:42:00,62.0,42.0,-100.00,SSE,155,4.0,6.0,48,0.00,,,-99.99,88.000000,,2013-05-11 14:42:00,
2013-05-11 07:52:00,62.0,42.0,-100.00,SSE,155,4.0,6.0,48,0.00,,,-99.99,88.000000,,2013-05-11 14:52:00,
2013-05-11 08:01:00,62.0,42.0,-100.00,SSE,155,4.0,6.0,48,0.00,,,-99.99,88.000000,,2013-05-11 15:01:00,
2013-05-11 08:11:00,62.0,42.0,-100.00,SSE,155,4.0,6.0,48,0.00,,,-99.99,88.000000,,2013-05-11 15:11:00,
2013-05-11 09:42:00,69.0,46.0,-100.00,West,271,3.0,7.0,43,-99.99,,,0.00,350.000000,,2013-05-11 16:42:00,
2013-05-11 09:52:00,69.0,46.0,-100.00,West,271,3.0,7.0,43,-99.99,,,0.00,350.000000,,2013-05-11 16:52:00,
2013-05-11 10:02:00,69.0,46.0,-100.00,West,271,3.0,7.0,43,-99.99,,,0.00,350.000000,,2013-05-11 17:02:00,
2013-05-11 10:12:00,69.0,46.0,-100.00,West,271,3.0,7.0,43,-99.99,,,0.00,350.000000,,2013-05-11 17:12:00,
2013-05-11 10:42:00,74.0,48.0,-100.00,NNW,337,5.0,7.0,40,0.00,,,0.00,679.000000,,2013-05-11 17:42:00,
2013-05-11 10:52:00,74.0,48.0,-100.00,NNW,337,5.0,7.0,40,0.00,,,0.00,679.000000,,2013-05-11 17:52:00,
2013-05-11 11:01:00,74.0,48.0,-100.00,NNW,337,5.0,7.0,40,0.00,,,0.00,679.000000,,2013-05-11 18:01:00,
2013-05-11 11:11:00,74.0,48.0,-100.00,NNW,337,5.0,7.0,40,0.00,,,0.00,679.000000,,2013-05-11 18:11:00,
2013-05-11 11:32:00,77.0,46.0,-100.00,NNW,338,6.0,10.0,34,0.00,,,0.00,886.000000,,2013-05-11 18:32:00,
2013-05-11 11:42:00,77.0,46.0,-100.00,NNW,338,6.0,10.0,34,0.00,,,0.00,886.000000,,2013-05-11 18:42:00,
2013-05-11 11:52:00,77.0,46.0,-100.00,NNW,338,6.0,10.0,34,0.00,,,0.00,886.000000,,2013-05-11 18:52:00,
2013-05-11 12:02:00,77.0,46.0,-100.00,NNW,338,6.0,10.0,34,0.00,,,0.00,886.000000,,2013-05-11 19:02:00,
2013-05-11 12:11:00,77.0,46.0,-100.00,NNW,338,6.0,10.0,34,0.00,,,0.00,886.000000,,2013-05-11 19:11:00,
2013-05-11 12:32:00,80.0,42.0,-100.00,SSE,165,9.0,15.0,26,0.00,,,0.00,958.000000,,2013-05-11 19:32:00,
2013-05-11 12:42:00,80.0,42.0,-100.00,SSE,165,9.0,15.0,26,0.00,,,0.00,958.000000,,2013-05-11 19:42:00,
2013-05-11 12:52:00,80.0,42.0,-100.00,SSE,165,9.0,15.0,26,0.00,,,0.00,958.000000,,2013-05-11 19:52:00,
2013-05-11 13:01:00,80.0,42.0,-100.00,SSE,165,9.0,15.0,26,0.00,,,0.00,958.000000,,2013-05-11 20:01:00,
2013-05-11 13:11:00,80.0,42.0,-100.00,SSE,165,9.0,15.0,26,0.00,,,0.00,958.000000,,2013-05-11 20:11:00,
2013-05-11 13:42:00,80.0,44.0,-100.00,SSW,201,8.0,15.0,28,0.00,,,0.00,812.000000,,2013-05-11 20:42:00,
2013-05-11 13:52:00,80.0,44.0,-100.00,SSW,201,8.0,15.0,28,0.00,,,0.00,812.000000,,2013-05-11 20:52:00,
2013-05-11 14:01:00,80.0,44.0,-100.00,SSW,201,8.0,15.0,28,0.00,,,0.00,812.000000,,2013-05-11 21:01:00,
2013-05-11 14:11:00,80.0,44.0,-100.00,SSW,201,8.0,15.0,28,0.00,,,0.00,812.000000,,2013-05-11 21:11:00,
2013-05-11 14:43:00,82.0,43.0,-100.00,SSW,200,6.0,14.0,25,0.00,,,-99.99,937.000000,,2013-05-11 21:43:00,
2013-05-11 14:52:00,82.0,43.0,-100.00,SSW,200,6.0,14.0,25,0.00,,,-99.99,937.000000,,2013-05-11 21:52:00,
2013-05-11 15:02:00,82.0,43.0,-100.00,SSW,200,6.0,14.0,25,0.00,,,-99.99,937.000000,,2013-05-11 22:02:00,
2013-05-11 15:12:00,82.0,43.0,-100.00,SSW,200,6.0,14.0,25,0.00,,,-99.99,937.000000,,2013-05-11 22:12:00,
2013-05-11 15:43:00,83.0,41.0,-100.00,WSW,240,5.0,17.0,23,0.00,,,0.00,861.000000,,2013-05-11 22:43:00,
2013-05-11 15:52:00,83.0,41.0,-100.00,WSW,240,5.0,17.0,23,0.00,,,0.00,861.000000,,2013-05-11 22:52:00,
2013-05-11 16:02:00,83.0,41.0,-100.00,WSW,240,5.0,17.0,23,0.00,,,0.00,861.000000,,2013-05-11 23:02:00,
2013-05-11 16:11:00,83.0,41.0,-100.00,WSW,240,5.0,17.0,23,0.00,,,0.00,861.000000,,2013-05-11 23:11:00,
2013-05-11 16:32:00,78.0,43.0,-100.00,West,271,7.0,15.0,29,0.00,,,-99.99,378.000000,,2013-05-11 23:32:00,
2013-05-11 16:42:00,78.0,43.0,-100.00,West,271,7.0,15.0,29,0.00,,,-99.99,378.000000,,2013-05-11 23:42:00,
2013-05-11 16:52:00,78.0,43.0,-100.00,West,271,7.0,15.0,29,0.00,,,-99.99,378.000000,,2013-05-11 23:52:00,
2013-05-11 17:01:00,78.0,43.0,-100.00,West,271,7.0,15.0,29,0.00,,,-99.99,378.000000,,2013-05-12 00:01:00,
2013-05-11 17:11:00,78.0,43.0,-100.00,West,271,7.0,15.0,29,0.00,,,-99.99,378.000000,,2013-05-12 00:11:00,
2013-05-11 18:32:00,78.0,44.0,-100.00,NNE,16,5.0,12.0,30,-99.99,,,0.00,357.000000,,2013-05-12 01:32:00,
2013-05-11 18:42:00,78.0,44.0,-100.00,NNE,16,5.0,12.0,30,-99.99,,,0.00,357.000000,,2013-05-12 01:42:00,
2013-05-11 18:52:00,78.0,44.0,-100.00,NNE,16,5.0,12.0,30,-99.99,,,0.00,357.000000,,2013-05-12 01:52:00,
2013-05-11 19:01:00,78.0,44.0,-100.00,NNE,16,5.0,12.0,30,-99.99,,,0.00,357.000000,,2013-05-12 02:01:00,
2013-05-11 19:11:00,78.0,44.0,-100.00,NNE,16,5.0,12.0,30,-99.99,,,0.00,357.000000,,2013-05-12 02:11:00,
2013-05-11 19:42:00,75.0,44.0,-100.00,WNW,285,4.0,10.0,33,0.00,,,0.00,135.000000,,2013-05-12 02:42:00,
2013-05-11 19:52:00,75.0,44.0,-100.00,WNW,285,4.0,10.0,33,0.00,,,0.00,135.000000,,2013-05-12 02:52:00,
2013-05-11 20:01:00,75.0,44.0,-100.00,WNW,285,4.0,10.0,33,0.00,,,0.00,135.000000,,2013-05-12 03:01:00,
2013-05-11 20:11:00,75.0,44.0,-100.00,WNW,285,4.0,10.0,33,0.00,,,0.00,135.000000,,2013-05-12 03:11:00,
2013-05-11 20:33:00,71.0,44.0,-100.00,WNW,284,9.0,19.0,38,0.00,,,0.00,35.000000,,2013-05-12 03:33:00,
2013-05-11 20:43:00,71.0,44.0,-100.00,WNW,284,9.0,19.0,38,0.00,,,0.00,35.000000,,2013-05-12 03:43:00,
2013-05-11 20:53:00,71.0,44.0,-100.00,WNW,284,9.0,19.0,38,0.00,,,0.00,35.000000,,2013-05-12 03:53:00,
2013-05-11 21:02:00,-999.0,-99.9,-100.00,WNW,284,9.0,19.0,38,0.00,,,0.00,35.000000,,2013-05-12 04:02:00,
2013-05-11 21:12:00,71.0,44.0,-100.00,WNW,284,9.0,19.0,38,0.00,,,0.00,35.000000,,2013-05-12 04:12:00,
2013-05-11 21:43:00,68.0,45.0,-100.00,WNW,288,4.0,11.0,43,0.00,,,0.00,1.000000,,2013-05-12 04:43:00,
2013-05-11 21:52:00,68.0,45.0,-100.00,WNW,288,4.0,11.0,43,0.00,,,0.00,1.000000,,2013-05-12 04:52:00,
2013-05-11 22:02:00,68.0,45.0,-100.00,WNW,288,4.0,11.0,43,0.00,,,0.00,1.000000,,2013-05-12 05:02:00,
2013-05-11 22:11:00,68.0,45.0,-100.00,WNW,288,4.0,11.0,43,0.00,,,0.00,1.000000,,2013-05-12 05:11:00,
2013-05-11 22:32:00,67.0,45.0,-100.00,NW,305,0.0,6.0,45,0.00,,,0.00,0.000000,,2013-05-12 05:32:00,
2013-05-11 22:42:00,67.0,45.0,-100.00,NW,305,0.0,6.0,45,0.00,,,0.00,0.000000,,2013-05-12 05:42:00,
2013-05-11 22:52:00,67.0,45.0,-100.00,NW,305,0.0,6.0,45,0.00,,,0.00,0.000000,,2013-05-12 05:52:00,
2013-05-11 23:01:00,67.0,45.0,-100.00,NW,305,0.0,6.0,45,0.00,,,0.00,0.000000,,2013-05-12 06:01:00,
2013-05-11 23:11:00,67.0,45.0,-100.00,NW,305,0.0,6.0,45,0.00,,,0.00,0.000000,,2013-05-12 06:11:00,
2013-05-11 23:42:00,66.0,45.0,-100.00,SE,146,3.0,4.0,47,0.00,,,0.00,0.000000,,2013-05-12 06:42:00,
2013-05-11 23:52:00,66.0,45.0,-100.00,SE,146,3.0,4.0,47,0.00,,,0.00,0.000000,,2013-05-12 06:52:00,